Location: Garden of he Gods Recreation Area
(37.6010°N, 88.3780°W)
Time: 02:17:11
(UTC-05:00)

Hubble Space Telescope - Visible Passes

Search period start: 21 October 2019 00:00
Search period end: 31 October 2019 00:00
Orbit: 536 x 540 km, 28.5° (Epoch: 20 October)

Date Brightness Start Highest point End Pass type
(mag) Time Alt. Az. Time Alt. Az. Time Alt. Az.
27 Oct 3.5 06:27:00 10° S 06:28:33 12° SSE 06:30:06 10° SE visible
28 Oct 3.3 06:15:41 10° SSW 06:17:51 14° SSE 06:20:00 10° SE visible
29 Oct 3.2 06:04:36 10° SSW 06:07:09 16° SSE 06:09:42 10° SE visible
30 Oct 3.0 05:53:46 10° SSW 05:56:29 18° SSE 05:59:18 10° SE visible
